TimePST,TemperatureF,Dew PointF,Humidity,Sea Level PressureIn,VisibilityMPH,Wind Direction,Wind SpeedMPH,Gust SpeedMPH,PrecipitationIn,Events,Conditions,WindDirDegrees,DateUTC
12:53 AM,34.0,32.0,92,30.02,10.0,Calm,Calm,-,0.00,Rain,Light Rain,0,2013-01-10 08:53:00
1:21 AM,33.8,30.2,87,30.02,10.0,Calm,Calm,-,0.00,,Overcast,0,2013-01-10 09:21:00
1:31 AM,33.8,32.0,93,30.02,10.0,West,5.8,-,0.00,,Overcast,270,2013-01-10 09:31:00
1:53 AM,35.1,32.0,89,30.03,6.0,WSW,5.8,-,0.00,,Overcast,250,2013-01-10 09:53:00
2:08 AM,35.6,33.8,93,30.03,8.0,SSW,4.6,-,N/A,,Overcast,200,2013-01-10 10:08:00
2:53 AM,34.0,32.0,92,30.03,10.0,Calm,Calm,-,N/A,,Scattered Clouds,0,2013-01-10 10:53:00
3:53 AM,33.1,30.0,89,30.03,10.0,SSW,3.5,-,N/A,,Mostly Cloudy,210,2013-01-10 11:53:00
4:03 AM,32.0,28.4,87,30.02,10.0,South,4.6,-,N/A,,Partly Cloudy,190,2013-01-10 12:03:00
4:22 AM,30.2,28.4,93,30.02,1.8,ESE,4.6,-,N/A,,Clear,120,2013-01-10 12:22:00
4:41 AM,30.2,28.4,93,30.02,3.0,East,5.8,-,N/A,,Mostly Cloudy,100,2013-01-10 12:41:00
4:53 AM,30.9,28.9,92,30.03,5.0,SE,3.5,-,N/A,,Overcast,130,2013-01-10 12:53:00
5:35 AM,32.0,30.2,93,30.03,6.0,NE,3.5,-,0.00,Rain,Light Freezing Rain,50,2013-01-10 13:35:00
5:48 AM,33.8,30.2,87,30.03,6.0,East,4.6,-,0.01,Rain,Light Freezing Rain,100,2013-01-10 13:48:00
5:53 AM,33.1,30.9,92,30.03,6.0,East,3.5,-,0.01,Rain,Light Freezing Rain,100,2013-01-10 13:53:00
6:07 AM,33.8,30.2,87,30.03,7.0,SE,4.6,-,0.00,Rain,Light Rain,130,2013-01-10 14:07:00
6:16 AM,33.8,30.2,87,30.03,9.0,Calm,Calm,-,0.00,,Overcast,0,2013-01-10 14:16:00
6:53 AM,34.0,30.9,89,30.04,10.0,SE,4.6,-,0.00,,Overcast,140,2013-01-10 14:53:00
7:01 AM,33.8,30.2,87,30.04,10.0,Calm,Calm,-,N/A,,Overcast,0,2013-01-10 15:01:00
7:45 AM,33.8,32.0,93,30.06,4.0,Calm,Calm,-,N/A,,Overcast,0,2013-01-10 15:45:00
7:53 AM,34.0,32.0,92,30.06,5.0,Calm,Calm,-,0.00,Rain,Light Rain,0,2013-01-10 15:53:00
8:02 AM,35.6,32.0,87,30.06,5.0,Calm,Calm,-,0.00,,Overcast,0,2013-01-10 16:02:00
8:10 AM,33.8,32.0,93,30.06,6.0,Calm,Calm,-,0.00,,Overcast,0,2013-01-10 16:10:00
8:46 AM,35.6,32.0,87,30.07,8.0,Calm,Calm,-,0.00,,Overcast,0,2013-01-10 16:46:00
8:53 AM,35.1,33.1,92,30.08,9.0,Calm,Calm,-,0.00,,Overcast,0,2013-01-10 16:53:00
9:53 AM,37.0,34.0,89,30.09,10.0,Calm,Calm,-,N/A,,Overcast,0,2013-01-10 17:53:00
10:53 AM,37.0,34.0,89,30.10,10.0,Calm,Calm,-,N/A,,Overcast,0,2013-01-10 18:53:00
11:53 AM,36.0,33.1,89,30.09,10.0,Calm,Calm,-,N/A,,Overcast,0,2013-01-10 19:53:00
12:53 PM,37.9,34.0,86,30.08,10.0,Calm,Calm,-,N/A,,Overcast,0,2013-01-10 20:53:00
1:50 PM,39.2,33.8,81,30.09,10.0,Calm,Calm,-,N/A,,Overcast,0,2013-01-10 21:50:00
1:53 PM,41.0,34.0,76,30.10,10.0,Calm,Calm,-,N/A,,Overcast,0,2013-01-10 21:53:00
2:19 PM,41.0,33.8,76,30.09,10.0,Calm,Calm,-,N/A,,Mostly Cloudy,0,2013-01-10 22:19:00
2:53 PM,41.0,35.1,79,30.09,10.0,Calm,Calm,-,N/A,,Clear,0,2013-01-10 22:53:00
3:53 PM,41.0,35.1,79,30.11,10.0,Calm,Calm,-,N/A,,Overcast,0,2013-01-10 23:53:00
4:39 PM,39.2,35.6,87,30.11,9.0,SSE,5.8,-,0.00,Rain,Light Rain,150,2013-01-11 00:39:00
4:53 PM,39.9,35.1,83,30.12,10.0,SE,3.5,-,0.00,,Overcast,130,2013-01-11 00:53:00
5:53 PM,39.0,35.1,86,30.12,10.0,Calm,Calm,-,0.00,Rain,Light Rain,0,2013-01-11 01:53:00
6:53 PM,35.1,32.0,89,30.12,10.0,South,3.5,-,0.00,,Mostly Cloudy,180,2013-01-11 02:53:00
7:53 PM,37.0,34.0,89,30.12,8.0,Calm,Calm,-,0.01,Rain,Light Rain,0,2013-01-11 03:53:00
9:22 PM,35.6,33.8,93,30.12,10.0,WSW,4.6,-,0.01,,Overcast,240,2013-01-11 05:22:00
9:53 PM,34.0,32.0,92,30.12,10.0,WSW,6.9,-,0.01,,Partly Cloudy,250,2013-01-11 05:53:00
10:42 PM,33.8,30.2,87,30.12,10.0,WSW,6.9,168.0,N/A,,Squalls,240,2013-01-11 06:42:00
10:53 PM,34.0,30.9,89,30.12,10.0,WSW,5.8,-,N/A,,Clear,250,2013-01-11 06:53:00
11:53 PM,33.1,30.0,89,30.13,10.0,West,3.5,-,N/A,,Clear,270,2013-01-11 07:53:00